Lapse_Rate
6.1 6.5 6.5 6.5 6.5 6.5 6.5 6.5 6.5 6.5 6.5 6.5 6.5 6.5 6.5 5.6 4.8 4.2 5.3 4.7 5.1 5.0 5.4 6.0 6.0 5.8 5.4 5.0 5.1 5.0 5.0 4.6 3.5 2.7 2.7 2.8 2.8 2.8 3.3 4.1 5.5 5.3 5.5 5.3
6.5 6.5 6.5 6.5 6.5 6.5 6.5 6.5 6.5 6.5 6.5 6.5 6.5 6.5 6.5 6.1 6.0 5.8 5.9 5.2 4.8 4.9 5.9 6.5 6.0 6.3 5.9 5.4 4.9 4.6 4.3 4.0 3.4 2.8 2.6 2.5 2.4 2.9 3.5 4.1 4.9 5.7 5.6 5.3
6.5 6.5 6.5 6.5 6.5 6.5 6.5 6.5 6.5 6.5 6.5 6.5 6.5 6.5 6.5 6.5 5.7 6.0 6.7 5.9 5.0 5.1 5.8 6.5 6.6 5.6 4.7 4.0 3.8 3.7 3.7 3.5 3.1 2.9 2.6 2.5 2.6 3.0 3.5 3.5 3.4 4.4 5.6 5.6
6.5 6.6 6.5 6.5 6.5 6.5 6.5 6.5 6.5 6.5 6.5 6.5 6.5 6.5 6.5 6.5 6.5 6.3 4.7 5.3 4.9 5.1 5.9 6.4 6.2 6.0 4.2 3.2 3.3 3.4 3.7 3.5 3.4 2.9 2.2 2.3 2.4 2.8 3.2 3.5 3.6 4.0 6.1 5.5
6.5 6.5 6.5 6.5 6.5 6.5 6.5 6.5 6.5 6.5 6.5 6.5 6.5 6.5 6.5 6.5 6.5 6.5 5.1 4.6 4.8 5.1 5.3 5.7 5.9 5.7 4.2 3.1 2.9 3.5 3.4 3.4 3.2 2.9 2.5 1.6 2.0 2.1 2.6 2.7 3.3 3.6 4.0 5.3
6.5 6.8 6.5 6.5 6.5 6.5 6.5 6.5 6.5 6.5 6.5 6.5 6.5 6.5 6.5 6.5 6.5 6.5 5.5 4.6 5.0 5.3 5.3 5.6 5.4 4.7 3.9 3.2 3.2 3.6 3.6 3.7 3.4 2.8 2.5 2.0 1.6 1.7 1.8 2.3 2.3 2.5 2.8 3.1
6.5 6.5 6.5 6.6 6.5 6.5 6.5 6.5 6.5 6.5 6.5 6.5 6.5 6.5 6.5 6.5 6.5 6.4 6.3 4.5 4.5 5.2 5.1 5.1 4.8 4.5 4.1 3.9 3.7 4.3 4.4 3.6 3.4 2.8 2.5 2.3 2.1 2.1 2.3 2.5 2.3 2.4 2.3 2.4
6.5 6.5 6.5 6.5 6.5 6.5 6.5 6.5 6.5 6.5 6.5 6.5 6.5 6.5 6.5 6.5 5.8 6.0 5.1 4.1 4.8 5.0 5.4 4.6 4.6 4.6 4.8 4.5 4.2 4.5 3.9 3.7 3.4 2.9 2.8 2.4 2.4 2.0 2.2 2.5 2.5 2.4 2.5 2.5
6.5 6.5 6.5 6.5 6.5 6.5 6.5 6.5 6.5 6.5 6.5 6.5 6.5 6.5 6.5 6.5 6.5 6.6 6.6 4.8 4.7 4.9 5.1 4.9 5.6 5.2 4.7 4.2 4.2 3.9 4.2 4.0 3.6 3.4 2.8 2.7 2.5 2.5 2.4 2.8 3.0 2.8 3.1 4.1
6.5 6.5 6.5 6.5 6.6 6.6 6.5 6.5 6.5 6.5 6.5 6.5 6.5 6.5 6.5 6.5 6.5 6.5 6.3 5.9 5.3 5.3 5.4 5.2 5.1 5.1 5.1 4.5 3.5 3.4 3.6 3.6 3.4 3.4 3.0 3.1 3.0 3.0 2.9 3.0 3.4 3.5 3.5 3.8
6.5 6.5 6.5 6.5 6.5 6.5 6.5 6.5 6.5 6.5 6.5 6.5 6.5 6.5 6.5 6.5 6.5 6.5 5.7 5.3 5.0 4.6 4.6 4.8 4.9 5.1 5.2 4.6 3.6 3.3 3.3 3.5 3.5 3.4 3.5 3.3 3.2 3.3 3.2 3.4 3.9 3.9 3.8 3.7
6.5 6.5 6.5 6.5 6.5 6.5 6.5 6.5 6.5 6.5 6.5 6.5 6.5 6.5 6.5 6.5 6.1 6.3 6.3 6.4 6.0 4.7 4.2 4.7 4.9 5.2 5.0 4.9 4.6 4.0 3.7 3.9 3.7 3.8 4.0 3.9 3.8 3.6 3.4 3.5 3.7 3.8 3.5 3.5
6.5 6.5 6.5 6.5 6.5 6.5 6.5 6.5 6.5 6.5 6.5 6.5 6.5 6.5 6.5 5.6 5.5 5.5 5.3 4.6 5.0 5.3 6.3 5.1 4.6 4.6 4.5 4.8 5.2 5.2 4.6 4.3 4.1 4.3 4.1 4.0 4.0 3.9 3.5 3.2 3.2 3.4 3.3 3.1
6.0 6.5 6.5 6.5 6.5 6.5 6.5 6.5 6.5 6.5 6.5 6.5 6.5 6.5 6.5 6.5 6.5 5.5 5.2 5.5 5.0 5.1 5.4 5.2 4.9 4.5 4.4 5.0 5.0 5.3 5.4 4.9 4.5 4.4 3.9 3.7 3.6 3.8 3.2 3.1 3.0 3.3 3.5 3.4
6.5 6.5 6.5 6.5 6.5 6.5 6.5 6.5 6.5 6.5 6.5 6.5 6.5 6.5 6.5 6.5 6.5 5.6 5.3 5.8 5.9 6.0 6.2 5.7 5.2 5.0 5.0 4.9 5.1 5.7 5.9 5.6 4.8 4.3 3.9 3.7 3.8 3.8 3.4 3.3 3.3 3.6 3.7 3.9
6.4 6.5 6.5 6.5 6.5 6.5 6.5 6.5 6.5 6.5 6.5 6.5 6.5 6.5 6.6 5.5 5.4 5.8 5.8 6.2 6.2 6.2 6.3 6.2 5.7 5.5 5.6 5.3 5.4 5.6 5.7 5.4 4.9 4.3 4.1 4.4 4.4 4.2 3.7 3.7 3.8 3.9 3.9 3.8
6.5 6.5 6.5 6.5 6.5 6.5 6.5 6.5 6.5 6.5 6.5 6.5 6.5 6.5 6.2 6.4 6.3 6.1 5.9 6.0 6.1 6.3 6.4 6.2 5.7 5.6 5.6 5.5 5.5 5.6 5.6 5.8 5.3 4.6 4.6 4.9 4.9 4.7 4.3 4.4 4.4 4.3 4.1 4.1
6.5 6.5 6.5 6.5 6.5 6.5 6.5 6.5 6.5 6.5 6.5 6.5 6.5 6.5 6.3 6.3 6.1 6.0 6.0 6.1 6.2 6.4 6.3 6.1 5.6 5.2 5.2 5.4 6.0 6.0 6.0 6.0 5.8 5.3 5.2 5.4 5.4 5.2 5.1 5.0 4.7 4.3 4.2 4.2
6.2 6.5 6.5 6.5 6.5 6.5 6.5 6.5 6.5 6.5 6.5 6.5 6.5 6.5 6.1 6.1 6.1 6.2 6.5 6.8 6.6 6.4 6.4 5.8 5.1 5.3 5.1 5.6 6.1 5.7 6.0 6.3 6.0 5.7 5.7 5.6 5.7 5.9 5.6 5.0 4.5 4.3 4.3 4.2
6.5 6.5 6.5 6.5 6.5 6.5 6.5 6.5 6.7 6.2 6.5 6.2 5.9 6.2 6.2 5.9 6.5 6.5 6.6 6.9 6.7 6.9 6.9 6.8 6.6 6.8 6.8 7.1 6.6 6.1 5.7 6.1 6.3 6.8 6.8 6.5 6.2 5.8 5.3 4.8 4.4 4.3 4.2 4.3
6.5 6.5 6.5 6.5 6.5 6.5 6.5 6.1 6.7 6.5 6.5 5.9 5.8 6.6 6.9 6.5 6.2 6.3 6.7 6.8 7.3 7.1 6.9 7.0 6.7 6.5 6.5 6.4 6.1 5.6 5.5 5.3 6.1 6.7 6.5 6.2 5.7 5.3 5.0 4.7 4.4 4.3 3.9 3.9
6.5 6.5 6.5 6.5 6.5 6.5 6.3 6.6 6.5 6.3 6.0 5.7 6.6 7.0 6.9 7.1 7.1 7.2 7.2 7.1 7.0 6.7 6.9 7.1 6.5 6.5 6.5 6.4 6.2 6.0 5.9 5.9 6.1 6.2 6.3 6.1 5.5 5.7 6.7 4.6 4.1 3.9 3.6 3.3
6.5 6.5 6.5 6.5 6.5 6.2 5.6 6.1 5.9 5.4 6.2 6.6 5.9 6.9 6.8 7.0 6.9 7.0 6.7 6.5 6.6 6.6 6.5 6.7 6.3 6.2 6.2 6.3 6.3 6.0 6.0 6.3 6.3 5.9 5.8 5.5 5.5 6.0 5.7 4.6 4.2 4.8 4.5 5.1
6.5 5.8 6.5 6.5 6.4 6.3 5.8 7.1 7.4 7.2 6.9 7.3 7.2 7.1 7.3 7.0 6.9 6.8 6.7 6.4 6.3 6.2 6.2 6.4 6.2 6.0 5.9 6.2 6.6 6.3 6.4 6.6 6.2 5.8 5.8 6.5 6.6 6.9 6.5 6.7 6.4 5.6 6.3 6.4
6.2 6.3 6.5 6.5 6.5 6.7 6.7 7.0 7.1 7.4 7.5 7.3 7.4 7.2 7.3 7.2 6.8 6.6 6.2 6.0 5.9 6.0 6.1 5.9 5.7 6.3 6.6 6.7 7.0 6.6 7.3 7.1 7.1 6.8 7.1 7.2 7.2 6.3 6.9 7.1 7.2 7.2 7.2 7.3
6.2 6.5 6.5 6.5 6.4 6.6 6.9 6.7 7.0 7.2 6.9 7.0 7.0 6.7 6.8 6.9 6.1 6.2 5.7 5.7 5.9 5.8 6.0 5.8 5.8 6.1 6.7 6.8 7.0 7.3 7.1 7.2 7.4 7.6 7.8 7.8 7.0 6.1 6.7 6.9 7.1 8.0 8.4 8.6
Wind_Speed
5 2 4 9 4 5 7 8 7 5 3 0 8 9 9 6 9 9 6 5 7 8 8 7 7 7 7 5 5 4 3 2 2 2 2 2 2 3 3 6 6 6 6 9
3 2 5 6 6 5 6 4 5 4 3 1 6 9 10 7 2 3 4 6 8 8 7 7 7 5 4 5 5 4 4 4 3 2 2 1 1 2 2 4 7 10 11 8
4 4 3 5 1 3 7 5 4 4 3 5 4 7 3 4 6 6 1 4 8 9 9 8 8 7 6 5 4 5 4 5 4 4 2 3 2 2 3 3 3 5 9 7
5 1 2 2 5 6 4 5 3 3 3 2 1 4 4 6 6 6 8 6 7 9 8 7 7 6 7 4 4 5 4 4 4 5 4 5 3 3 3 2 3 5 10 8
1 2 3 5 4 5 4 3 5 3 2 3 3 3 5 5 6 7 8 8 8 8 9 7 7 7 7 5 3 3 4 4 4 4 4 3 4 3 3 3 6 6 6 10
4 1 4 3 4 7 5 3 2 1 2 2 0 4 5 3 2 4 6 9 8 8 7 7 6 7 4 4 3 2 4 4 4 4 5 5 5 5 4 4 4 4 3 4
3 3 2 2 2 2 1 4 2 5 3 5 1 3 8 4 5 5 4 9 9 8 6 6 6 5 6 5 3 2 3 4 3 4 4 4 4 4 4 4 3 5 3 3
4 3 3 3 4 2 2 1 3 5 2 3 2 5 5 3 6 6 6 9 9 8 7 8 8 7 6 7 5 3 3 2 3 3 3 3 3 2 2 3 2 3 3 3
3 2 2 5 4 4 2 1 1 2 1 3 4 5 1 3 4 2 1 8 8 8 7 8 7 6 6 6 5 4 2 2 2 1 1 2 2 2 2 4 3 2 3 4
3 4 2 2 2 2 2 2 2 2 0 4 5 3 4 1 2 5 5 5 6 6 7 7 7 8 7 7 6 6 5 4 4 2 1 1 1 1 3 2 2 3 4 3
2 1 1 1 4 3 2 1 2 1 3 2 3 5 2 7 3 3 7 7 7 9 8 8 7 7 8 7 7 7 6 5 4 4 2 2 2 2 3 3 2 3 4 5
3 2 2 1 3 4 4 3 4 4 3 2 3 6 3 7 5 3 3 3 2 7 9 8 8 8 7 7 6 6 6 5 5 3 2 3 3 3 3 3 3 4 4 5
4 2 1 2 1 1 4 5 4 3 4 5 3 5 5 6 8 4 6 8 5 7 1 4 6 7 7 7 7 6 5 5 4 3 3 3 3 2 2 3 4 4 5 5
4 3 3 4 1 3 4 5 7 6 3 4 7 3 6 4 5 6 7 6 7 8 8 6 5 6 7 7 7 6 5 5 4 3 4 4 4 2 3 3 4 4 4 5
3 1 5 4 6 5 4 6 9 10 12 6 2 4 6 5 6 6 8 8 9 10 11 11 9 4 4 5 5 4 3 4 3 3 4 5 4 3 4 4 4 4 4 5
2 2 1 4 2 6 7 12 11 14 17 13 14 17 5 6 7 9 8 7 7 7 7 8 9 8 5 2 5 5 4 4 4 4 6 5 5 5 5 5 5 5 6 6
3 2 2 4 2 4 7 15 15 7 6 7 11 3 6 5 6 5 6 7 7 7 7 9 9 7 6 5 4 2 2 3 4 5 6 6 6 6 5 5 5 6 7 6
2 2 1 4 4 4 4 3 1 4 7 3 4 6 7 4 5 6 7 7 7 7 8 8 7 8 8 7 4 2 2 3 5 6 6 6 6 6 5 5 6 6 5 6
3 2 2 3 4 8 6 3 1 2 1 4 5 6 5 7 4 4 7 6 5 6 6 6 6 6 7 7 6 5 5 5 6 7 7 7 6 5 6 7 7 6 5 5
4 3 1 2 3 5 2 4 2 5 3 5 7 6 7 7 1 2 7 6 6 6 5 6 7 6 7 7 6 6 6 6 6 6 6 5 5 6 6 7 7 5 5 6
3 3 7 6 4 6 4 7 1 3 2 7 8 7 3 4 3 6 7 6 5 5 6 7 6 6 6 6 5 5 6 7 7 6 5 5 6 7 7 7 6 6 6 6
6 6 4 4 4 7 4 3 2 3 5 6 3 2 5 4 5 4 5 6 7 7 7 6 6 6 6 7 6 7 7 7 6 6 6 6 7 7 7 7 7 7 6 7
2 4 2 4 3 4 6 7 5 4 3 2 6 2 5 4 5 5 5 6 6 7 6 6 6 7 7 7 7 8 7 7 7 7 7 8 8 9 8 7 7 6 6 7
5 2 2 4 5 5 7 4 2 4 4 1 3 1 3 4 5 5 5 6 5 6 6 5 7 7 7 7 7 7 8 7 7 8 8 9 9 10 8 7 6 6 8 8
1 3 3 5 5 3 3 4 5 2 2 1 2 3 4 5 6 6 5 7 6 6 6 6 6 9 11 9 10 9 9 9 11 10 11 11 9 7 9 9 9 9 10 10
5 15 9 8 5 3 1 3 7 4 4 5 4 4 6 5 8 7 7 7 5 7 7 6 8 9 11 10 11 12 10 10 12 12 11 10 7 6 8 9 9 15 19 22
Wind_Direction
220 139 211 220 260 314 219 211 154 92 134 23 231 252 253 206 196 217 222 226 112 114 109 98 95 97 99 118 139 104 65 76 47 2 352 3 21 334 2 16 348 317 348 343
150 142 23 335 327 317 5 124 75 62 125 176 303 279 252 227 204 86 42 115 130 116 127 131 128 137 159 117 105 88 66 49 58 22 350 26 295 305 284 317 329 14 354 335
109 44 343 297 296 68 35 30 51 72 214 223 286 278 146 84 97 94 333 90 134 146 155 157 156 149 121 94 93 92 75 59 36 14 332 348 333 328 5 354 350 326 324 357
68 322 273 247 73 353 120 19 60 28 22 239 225 275 211 145 171 177 169 183 152 143 143 155 143 140 122 120 96 96 75 51 43 22 18 14 11 6 340 328 342 336 7 1
260 40 5 57 12 318 107 34 53 11 6 45 199 73 264 128 187 189 182 168 140 137 137 140 135 115 121 127 109 89 84 63 40 24 35 38 19 354 334 357 353 359 344 360
80 204 21 54 53 44 136 153 120 80 39 34 105 121 285 192 116 138 161 144 136 130 125 119 115 127 131 131 114 69 102 53 45 35 27 38 30 352 359 356 359 344 344 352
140 49 98 319 154 150 300 54 8 357 11 223 204 59 240 121 71 37 153 139 127 126 122 137 156 171 163 151 127 118 67 75 26 42 29 28 25 2 350 5 346 342 340 342
146 320 22 352 28 14 107 100 154 218 211 259 67 241 258 76 40 40 344 135 133 144 170 175 188 178 162 145 147 132 93 97 59 37 10 30 26 5 348 346 339 347 341 335
116 81 130 31 351 10 136 196 17 35 9 46 221 250 115 81 108 133 18 122 154 175 192 182 179 164 163 158 158 126 123 108 99 8 347 38 22 10 343 334 360 347 341 325
11 94 8 102 277 92 2 322 62 354 189 256 262 238 227 147 130 168 160 206 201 195 193 188 182 184 180 172 162 173 181 186 185 185 169 201 245 290 300 311 342 341 327 317
340 131 154 41 198 147 149 219 221 60 169 205 322 263 165 188 165 159 195 196 219 207 203 198 192 191 182 171 175 194 188 198 191 185 204 211 227 267 297 298 328 327 322 325
54 335 143 112 66 7 314 298 186 137 219 210 183 274 108 109 114 135 79 121 266 244 196 195 194 194 182 180 188 199 200 197 176 181 228 248 236 237 285 328 335 337 326 331
354 264 115 330 5 161 249 200 262 64 42 222 142 267 127 157 151 155 47 11 1 354 124 199 198 196 187 190 196 196 205 201 168 185 237 265 276 284 309 322 333 330 328 325
329 318 217 182 196 139 203 218 195 163 154 214 218 189 204 161 66 51 30 32 20 3 351 316 243 212 192 189 186 186 204 181 183 201 238 252 265 276 287 293 299 305 306 309
47 273 26 306 272 268 246 249 202 211 226 192 235 279 322 61 62 42 48 29 26 16 4 349 329 261 223 189 163 172 169 164 200 228 249 253 257 260 268 281 284 289 295 286
142 227 83 288 215 205 246 241 239 234 237 248 269 281 61 45 46 51 43 39 34 15 359 352 349 347 349 235 189 175 157 201 206 244 260 262 256 254 250 261 270 274 278 278
182 218 172 265 182 298 268 243 218 223 220 217 237 243 80 57 83 76 56 39 26 9 3 359 352 347 345 358 65 126 222 229 207 239 258 261 260 263 265 269 274 274 273 272
206 219 324 273 333 236 236 80 75 272 208 113 353 77 79 43 122 113 65 41 11 2 3 357 348 350 357 354 358 355 324 283 271 267 268 278 273 263 269 273 268 268 265 266
217 271 250 219 231 288 217 167 79 150 195 107 120 90 56 359 287 118 59 35 21 15 1 349 347 337 340 341 340 0 346 317 289 264 257 255 257 264 269 273 271 268 267 270
288 273 297 227 240 251 131 122 96 115 241 99 100 90 56 345 321 143 19 21 21 7 353 345 326 328 336 327 358 352 317 300 288 290 288 300 307 290 278 271 269 261 252 257
161 213 216 232 266 279 116 131 171 143 209 73 69 60 13 320 317 332 7 4 351 335 333 328 339 326 318 332 330 306 294 285 279 296 291 288 286 280 271 266 258 261 265 269
169 172 191 199 242 264 32 67 221 117 43 62 36 293 256 283 323 339 341 328 338 340 335 329 319 307 305 303 300 278 273 275 296 297 289 281 273 271 271 261 262 257 251 254
271 221 206 203 217 106 30 92 89 64 120 212 232 302 39 317 312 326 320 338 336 327 318 319 317 306 296 294 286 284 270 269 268 266 255 253 254 257 255 255 260 265 253 252
240 236 216 5 77 111 115 111 176 204 232 90 81 316 303 297 316 314 317 311 308 299 305 304 308 298 293 283 279 274 282 275 269 267 267 268 265 269 265 266 265 266 272 268
237 12 266 256 117 136 169 234 222 227 126 276 291 290 284 285 279 279 278 280 276 280 282 284 285 291 290 294 291 280 280 281 281 277 280 279 271 261 271 265 263 261 260 258
242 253 246 265 122 96 352 206 214 184 208 228 243 264 273 282 277 277 275 270 273 280 277 281 278 277 282 282 287 288 284 287 290 293 290 284 273 257 264 269 272 264 264 269